sat.trackr.live / text

‹ back to catalog

STARLINK-35865

NORAD 67826 · 2026-033F

PAYLOAD ACTIVE UNKNOWN

§ Identity

Operator
Country
US
Launch date
2026-02-16
Launch site
AFETR
Launch vehicle
Mass (kg)
RCS (m²)

Purposes: comms

External: N2YO · Heavens-Above · Gunter

§ Orbital elements

Epoch: 2026-09-19T16:29:02.626080Z

Period
94.27 min
Inclination
43.0040°
Eccentricity
0.0001697
Mean motion
15.27593207 rev/d
Perigee alt
481.8 km
Apogee alt
484.2 km
Semi-major
6,861.1 km
B*
3.6739e-4
RAAN
251.4356°
Arg perigee
272.0078°
Mean anomaly
88.0579°
Rev number
3,434

§ Raw data

STARLINK-358651 67826U 26033F   26262.68683595  .00009865  00000+0  36739-3 0  99992 67826  43.0040 251.4356 0001697 272.0078  88.0579 15.27593207 34349

JSON: /api/v1/satellites/67826 · /tle

For live sub-satellite position, see the globe view (requires WebGL).

§ Visibility from observer

Set your observer location to see the next 7 days of passes ≥ 10°. The values pass through the URL so the page stays shareable.

No JS? Fill the form by hand. The geolocation button needs JavaScript.